Change the Weather History Date:

Monday, August 19, 2013

  Actual Average Record
Temperature  
Mean Temperature 74 °F 68 °F  
Max Temperature 94 °F 84 °F 98 °F (1942)
Min Temperature 53 °F 52 °F 33 °F (1907)
Degree Days  
Heating Degree Days 0 2  
Month to date heating degree days 8 19  
Since 1 June heating degree days 129 182  
Since 1 July heating degree days 16 49  
Cooling Degree Days 9 4  
Month to date cooling degree days 89 112  
Year to date cooling degree days 285 333  
Since 1 June cooling degree days 278 322  
Growing Degree Days 23 (Base 50)    
Moisture  
Dew Point 42 °F    
Average Humidity 40    
Maximum Humidity 66    
Minimum Humidity 14    
Precipitation  
Precipitation 0.00 in 0.04 in 1.05 in (1975)
Month to date precipitation 0.93 0.67  
Year to date precipitation 14.89 8.23  
Snow  
Snow 0.00 in 0.00 in 0.00 in (1999)
Month to date snowfall 0.0 0.0  
Since 1 June snowfall 0.0 0.0  
Since 1 July snowfall 0.0 0.0  
Snow Depth 0.00 in    
Sea Level Pressure  
Sea Level Pressure 29.81 in    
Wind  
Wind Speed 10 mph (WSW)    
Max Wind Speed 23 mph    
Max Gust Speed 31 mph    
Visibility 10 miles    
Events      
T = Trace of Precipitation, MM = Missing Value Source: NWS Daily Summary

Daily Weather History Graph

Daily Weather History Graph

Search for Another Location

Airport or City:

Trip Planner

Search our weather history database for the weather conditions in past years. The results will help you decide how hot, cold, wet, or windy it might be!

Date:

Astronomy

Aug. 19, 2013 Rise Set
Actual Time 6:18 AM MDT 8:25 PM MDT
Civil Twilight 5:44 AM MDT 8:59 PM MDT
Nautical Twilight 5:02 AM MDT 9:41 PM MDT
Astronomical Twilight 4:14 AM MDT 10:28 PM MDT
Moon 7:18 PM MDT (8/19) 4:38 AM MDT (8/19)
Length of Visible Light 15h 15m
Length of Day
14h 07m
Waxing Gibbous, 97% of the Moon is Illuminated
Aug 19
Waxing Gibbous
Aug 20
Full
Aug 28
Last Quarter
Sep 5
New
Sep 12
First Quarter

Hourly Weather History & Observations

Time (MDT) Temp. Dew Point Humidity Pressure Visibility Wind Dir Wind Speed Gust Speed Precip Events Conditions
12:53 AM 61.0 °F 44.1 °F 54% 29.85 in 10.0 mi WSW 8.1 mph - N/A   Clear
1:53 AM 61.0 °F 43.0 °F 52% 29.86 in 10.0 mi WSW 6.9 mph - N/A   Clear
2:53 AM 61.0 °F 42.1 °F 50% 29.85 in 10.0 mi WNW 3.5 mph - N/A   Clear
3:53 AM 60.1 °F 43.0 °F 53% 29.86 in 10.0 mi WSW 5.8 mph - N/A   Clear
4:53 AM 55.9 °F 44.1 °F 64% 29.86 in 10.0 mi SW 9.2 mph - N/A   Clear
5:53 AM 55.0 °F 43.0 °F 64% 29.88 in 10.0 mi WSW 5.8 mph - N/A   Clear
6:53 AM 55.9 °F 44.1 °F 64% 29.88 in 10.0 mi SW 8.1 mph - N/A   Clear
7:53 AM 62.1 °F 46.0 °F 56% 29.89 in 10.0 mi WSW 6.9 mph - N/A   Clear
8:53 AM 71.1 °F 45.0 °F 39% 29.88 in 10.0 mi SW 12.7 mph - N/A   Clear
9:53 AM 77.0 °F 44.1 °F 31% 29.87 in 10.0 mi SW 11.5 mph - N/A   Clear
10:53 AM 81.0 °F 43.0 °F 26% 29.85 in 10.0 mi SW 12.7 mph 20.7 mph N/A   Clear
11:53 AM 84.0 °F 42.1 °F 23% 29.85 in 10.0 mi SW 15.0 mph 19.6 mph N/A   Clear
12:53 PM 87.1 °F 41.0 °F 20% 29.83 in 10.0 mi West 10.4 mph - N/A   Clear
1:53 PM 90.0 °F 39.9 °F 17% 29.79 in 10.0 mi WSW 17.3 mph 28.8 mph N/A   Clear
2:53 PM 91.9 °F 39.9 °F 16% 29.77 in 10.0 mi WSW 18.4 mph 31.1 mph N/A   Clear
3:53 PM 93.0 °F 37.9 °F 15% 29.74 in 10.0 mi West 13.8 mph 19.6 mph N/A   Clear
4:53 PM 93.9 °F 39.0 °F 15% 29.73 in 10.0 mi SW 12.7 mph 29.9 mph N/A   Clear
5:53 PM 93.0 °F 39.0 °F 15% 29.71 in 10.0 mi West 10.4 mph - N/A   Clear
6:53 PM 91.0 °F 41.0 °F 17% 29.70 in 10.0 mi West 10.4 mph - N/A   Clear
7:53 PM 84.0 °F 43.0 °F 24% 29.70 in 10.0 mi West 10.4 mph - N/A   Clear
8:53 PM 78.1 °F 45.0 °F 31% 29.72 in 10.0 mi NW 8.1 mph - N/A   Clear
9:53 PM 71.1 °F 45.0 °F 39% 29.75 in 10.0 mi SW 3.5 mph - N/A   Clear
10:53 PM 70.0 °F 44.1 °F 39% 29.75 in 10.0 mi South 8.1 mph - N/A   Clear
11:53 PM 72.0 °F 43.0 °F 35% 29.78 in 10.0 mi SW 8.1 mph - N/A   Clear